ARG2742 SAME-SAAR

Flight info

Callsign ARG2742
Flight time N/A
Altitude 35000
Route KAMUV1C KAMUV UT670 RAXUR DCT VUMKI
Aircraft B737/M-SDE2E3FGHIRWXY/LB1

Departure

Time 2026-04-22 01:22
Airport Governor Francisco Gabrielli International Airport (SAME)

Arrival

Time N/A
Airport Rosario Islas Malvinas International Airport (SAAR)
Time Latitude Longitude Altitude Speed Heading
2026-04-22 01:09 -32.82767 -68.79766 2319 ft 0 kts 270°
2026-04-22 01:15 -32.82767 -68.79755 2319 ft 2 kts 270°
2026-04-22 01:15 -32.82764 -68.79734 2319 ft 3 kts 250°
2026-04-22 01:15 -32.82754 -68.79713 2319 ft 3 kts 229°
2026-04-22 01:15 -32.82738 -68.79698 2319 ft 3 kts 208°
2026-04-22 01:16 -32.82719 -68.79691 2319 ft 3 kts 189°
2026-04-22 01:16 -32.82707 -68.79689 2319 ft 0 kts 181°
2026-04-22 01:17 -32.82708 -68.79689 2319 ft 1 kts 181°
2026-04-22 01:17 -32.82760 -68.79692 2319 ft 14 kts 190°
2026-04-22 01:18 -32.82863 -68.79704 2319 ft 13 kts 179°
2026-04-22 01:18 -32.82901 -68.79647 2319 ft 11 kts 117°
2026-04-22 01:18 -32.82979 -68.79567 2319 ft 18 kts 140°
2026-04-22 01:18 -32.83063 -68.79507 2319 ft 12 kts 178°
2026-04-22 01:19 -32.83166 -68.79510 2319 ft 18 kts 181°
2026-04-22 01:19 -32.83294 -68.79513 2319 ft 19 kts 181°
2026-04-22 01:19 -32.83438 -68.79514 2319 ft 23 kts 180°
2026-04-22 01:19 -32.83615 -68.79515 2319 ft 28 kts 180°
2026-04-22 01:20 -32.83812 -68.79516 2319 ft 27 kts 181°
2026-04-22 01:20 -32.83975 -68.79520 2319 ft 21 kts 181°
2026-04-22 01:20 -32.84039 -68.79493 2319 ft 9 kts 107°
2026-04-22 01:20 -32.84055 -68.79393 2319 ft 12 kts 101°
2026-04-22 01:21 -32.84045 -68.79305 2319 ft 11 kts 20°
2026-04-22 01:21 -32.83836 -68.79298 2319 ft 60 kts
2026-04-22 01:21 -32.83209 -68.79289 2319 ft 118 kts
2026-04-22 01:21 -32.82221 -68.79275 2337 ft 164 kts
2026-04-22 01:22 -32.81002 -68.79245 2675 ft 188 kts
2026-04-22 01:22 -32.79599 -68.79182 3050 ft 212 kts
2026-04-22 01:22 -32.78078 -68.79098 3594 ft 231 kts
2026-04-22 01:22 -32.76495 -68.78538 4256 ft 243 kts 30°
2026-04-22 01:23 -32.75276 -68.77193 5333 ft 236 kts 55°
2026-04-22 01:23 -32.74692 -68.75461 6565 ft 219 kts 81°
2026-04-22 01:23 -32.74789 -68.73731 7620 ft 207 kts 108°
2026-04-22 01:23 -32.75542 -68.72214 7990 ft 229 kts 134°
2026-04-22 01:24 -32.76806 -68.70905 8280 ft 254 kts 146°
2026-04-22 01:24 -32.78399 -68.69803 8633 ft 276 kts 160°
2026-04-22 01:24 -32.80303 -68.69237 9064 ft 290 kts 176°
2026-04-22 01:24 -32.82265 -68.69251 9149 ft 280 kts 189°
2026-04-22 01:25 -32.84166 -68.69715 8588 ft 282 kts 199°
2026-04-22 01:25 -32.86023 -68.70572 8033 ft 283 kts 208°
2026-04-22 01:25 -32.87743 -68.71600 7887 ft 272 kts 210°
2026-04-22 01:25 -32.89435 -68.72628 7433 ft 273 kts 210°
2026-04-22 01:26 -32.91173 -68.73542 6899 ft 278 kts 199°
2026-04-22 01:26 -32.93106 -68.73976 5877 ft 295 kts 188°
2026-04-22 01:26 -32.95062 -68.74277 5820 ft 271 kts 189°
2026-04-22 01:26 -32.96886 -68.74575 5519 ft 261 kts 189°
2026-04-22 01:27 -32.98563 -68.75225 5294 ft 244 kts 213°
2026-04-22 01:27 -32.99697 -68.76590 5226 ft 225 kts 238°
2026-04-22 01:27 -33.00269 -68.78265 5217 ft 213 kts 258°
2026-04-22 01:27 -33.00296 -68.79974 5391 ft 209 kts 283°
2026-04-22 01:28 -32.99508 -68.81395 5481 ft 205 kts 321°
2026-04-22 01:28 -32.98216 -68.81935 5388 ft 195 kts
2026-04-22 01:28 -32.96996 -68.81380 5140 ft 191 kts 27°
2026-04-22 01:28 -32.95852 -68.80598 4870 ft 185 kts 30°
2026-04-22 01:29 -32.94774 -68.79814 4599 ft 181 kts 23°
2026-04-22 01:29 -32.93508 -68.79551 4117 ft 186 kts
2026-04-22 01:29 -32.92257 -68.79456 3850 ft 175 kts
2026-04-22 01:29 -32.91071 -68.79400 3568 ft 163 kts
2026-04-22 01:30 -32.89988 -68.79409 3433 ft 151 kts
2026-04-22 01:30 -32.88975 -68.79393 3285 ft 146 kts
2026-04-22 01:30 -32.87958 -68.79380 3070 ft 145 kts
2026-04-22 01:30 -32.86937 -68.79357 2856 ft 149 kts
2026-04-22 01:31 -32.85897 -68.79335 2632 ft 149 kts
2026-04-22 01:31 -32.84875 -68.79316 2430 ft 145 kts
2026-04-22 01:31 -32.83901 -68.79301 2320 ft 136 kts
2026-04-22 01:31 -32.83184 -68.79289 2319 ft 60 kts
2026-04-22 01:32 -32.82804 -68.79289 2319 ft 49 kts 359°
2026-04-22 01:32 -32.84954 -68.79317 2449 ft 145 kts
2026-04-22 01:32 -32.83960 -68.79302 2320 ft 137 kts
2026-04-22 01:32 -32.83404 -68.79292 2319 ft 95 kts